Location: Dos Palmas
(32.4468°N, 116.8732°W)
Time: 23:30:19
(UTC+00:00)

In-Cosmos 22 - Pass Details

Date: 20 June 2021
Orbit: 786 x 876 km, 81.2° (Epoch: 01 August)

Event Time Altitude Azimuth Distance (km) Brightness Sun altitude
Exits shadow 04:31:03 - 194° (SSW) 2,945 6.7 -16.8°
Reaches altitude 10° 04:32:36 10° 196° (SSW) 2,343 6.2 -17.1°
Maximum altitude 04:37:50 67° 279° (W) 849 4.4 -17.9°
Drops below altitude 10° 04:43:05 10° 2° (N) 2,351 7.1 -18.6°
Sets 04:45:29 0° 5° (N) 3,288 7.9 -19.0°
